Indian Springs, NV

12:28 PM PDT on June 25, 2017 (GMT -0700)
Indian Springs Air Force Auxiliary

Weather History for KINS - March, 2013

Change the Weather History Date:

Friday, March 22, 2013

  Actual Average (KDRA) Record (KDRA)
Temperature  
Mean Temperature 56 °F -  
Max Temperature 69 °F 69 °F 87 °F (2004)
Min Temperature 44 °F 42 °F 30 °F (2006)
Degree Days  
Heating Degree Days 9    
Growing Degree Days 6 (Base 50)    
Moisture  
Dew Point -5 °F    
Average Humidity 12    
Maximum Humidity 25    
Minimum Humidity 4    
Precipitation  
Precipitation 0.00 in - - ()
Sea Level Pressure  
Sea Level Pressure 29.79 in    
Wind  
Wind Speed 7 mph (NW)    
Max Wind Speed 25 mph    
Max Gust Speed 38 mph    
Visibility 10 miles    
Events      
Averages and records for this station are not official NWS values.
T = Trace of Precipitation, MM = Missing Value Source: NWS Daily Summary

Daily Weather History Graph

Daily Weather History Graph

Search for Another Location

Airport or City:

Trip Planner

Search our weather history database for the weather conditions in past years. The results will help you decide how hot, cold, wet, or windy it might be!

Date:

Astronomy

Mar. 22, 2013 Rise Set
Actual Time 6:42 AM PDT 6:56 PM PDT
Civil Twilight 6:17 AM PDT 7:22 PM PDT
Nautical Twilight 5:46 AM PDT 7:52 PM PDT
Astronomical Twilight 5:16 AM PDT 8:23 PM PDT
Moon 2:34 PM PDT (3/22) 3:39 AM PDT (3/22)
Length of Visible Light 13h 05m
Length of Day
12h 13m
Waxing Gibbous, 78% of the Moon is Illuminated
Mar 22
Waxing Gibbous
Mar 27
Full
Apr 2
Last Quarter
Apr 10
New
Apr 18
First Quarter

Hourly Weather History & Observations

Time (PDT) Temp. Windchill Dew Point Humidity Pressure Visibility Wind Dir Wind Speed Gust Speed Precip Events Conditions
12:55 AM 53.2 °F - 5.9 °F 15% 29.72 in 10.0 mi West 3.5 mph - N/A   Clear
1:55 AM 50.5 °F - 12.2 °F 22% 29.75 in 10.0 mi Calm Calm - N/A   Clear
2:55 AM 49.5 °F - 14.4 °F 25% 29.74 in 10.0 mi West 8.1 mph - N/A   Clear
3:55 AM 48.2 °F - 11.1 °F 22% 29.75 in 10.0 mi West 10.4 mph - N/A   Clear
4:55 AM 50.4 °F - 9.7 °F 19% 29.77 in 10.0 mi West 3.5 mph - N/A   Clear
5:55 AM 45.1 °F 42.0 °F 8.8 °F 23% 29.80 in 10.0 mi West 5.8 mph - N/A   Clear
6:55 AM 44.4 °F 42.0 °F 9.7 °F 24% 29.81 in 10.0 mi North 4.6 mph - N/A   Clear
7:40 AM 44.4 °F 42.0 °F 9.7 °F 24% 29.81 in 10.0 mi North 4.6 mph - N/A   Clear
7:55 AM 47.5 °F - 10.0 °F 22% 29.83 in 10.0 mi North 5.8 mph - N/A   Clear
8:55 AM 50.7 °F - 9.0 °F 19% 29.84 in 10.0 mi NNE 3.5 mph - N/A   Clear
9:55 AM 55.9 °F - 5.9 °F 13% 29.83 in 10.0 mi NNW 3.5 mph - N/A   Clear
10:55 AM 59.0 °F - -2.2 °F 8% 29.81 in 10.0 mi West 9.2 mph - N/A   Partly Cloudy
11:55 AM 61.5 °F - -6.3 °F 6% 29.80 in 10.0 mi WNW 8.1 mph - N/A   Clear
12:55 PM 63.0 °F - -6.7 °F 6% 29.79 in 10.0 mi Variable 4.6 mph - N/A   Clear
1:55 PM 65.8 °F - -11.7 °F 4% 29.76 in 10.0 mi WNW 16.1 mph - N/A   Clear
2:55 PM 68.4 °F - -23.8 °F 4% 29.73 in 10.0 mi WNW 25.3 mph 38.0 mph N/A   Clear
3:55 PM 68.7 °F - -20.2 °F 4% 29.72 in 10.0 mi NW 18.4 mph 27.6 mph N/A   Clear
4:55 PM 68.5 °F - -15.5 °F 4% 29.72 in 10.0 mi NW 15.0 mph - N/A   Clear
5:55 PM 67.8 °F - -16.1 °F 4% 29.72 in 10.0 mi NW 15.0 mph - N/A   Clear
6:55 PM 64.2 °F - -26.5 °F 4% 29.75 in 10.0 mi NW 20.7 mph 26.5 mph N/A   Clear
7:55 PM 61.2 °F - -20.7 °F 4% 29.78 in 10.0 mi NW 13.8 mph - N/A   Clear
8:55 PM 57.4 °F - -17.7 °F 4% 29.81 in 10.0 mi NW 13.8 mph - N/A   Clear
9:55 PM 55.6 °F - -20.2 °F 4% 29.84 in 10.0 mi Variable 3.5 mph - N/A   Clear
10:55 PM 54.1 °F - -20.0 °F 4% 29.86 in 10.0 mi Variable 6.9 mph - N/A   Clear
11:55 PM 52.3 °F - -21.5 °F 4% 29.89 in 10.0 mi NE 5.8 mph - N/A   Clear